Lake Tillery Weather Center

Moon Phase Calendar



Lake Tillery Water Level
Online Cameras

 


      

Current Conditions in Emerald Shores
7/25/2021 6:40:21 PM

87°F
Feels Like 91
Clouds
Humidity
58%
Pressure
29.91"
Wind
6.6 mph (SSE)
Dew Point
70°F
UV Index
0/10 (Low)
Visibility
6 mi

Hourly Forecast

Date & Time Sun, Jul 25
6:00 PM
Sun, Jul 25
7:00 PM
Sun, Jul 25
8:00 PM
Sun, Jul 25
9:00 PM
Sun, Jul 25
10:00 PM
Sun, Jul 25
11:00 PM
Mon, Jul 26
12:00 AM
Mon, Jul 26
1:00 AM
Mon, Jul 26
2:00 AM
Mon, Jul 26
3:00 AM
Mon, Jul 26
4:00 AM
Mon, Jul 26
5:00 AM
Mon, Jul 26
6:00 AM
Mon, Jul 26
7:00 AM
Mon, Jul 26
8:00 AM
Mon, Jul 26
9:00 AM
Mon, Jul 26
10:00 AM
Mon, Jul 26
11:00 AM
Mon, Jul 26
12:00 PM
Mon, Jul 26
1:00 PM
Mon, Jul 26
2:00 PM
Mon, Jul 26
3:00 PM
Mon, Jul 26
4:00 PM
Mon, Jul 26
5:00 PM
Mon, Jul 26
6:00 PM
Mon, Jul 26
7:00 PM
Mon, Jul 26
8:00 PM
Mon, Jul 26
9:00 PM
Mon, Jul 26
10:00 PM
Mon, Jul 26
11:00 PM
Tue, Jul 27
12:00 AM
Tue, Jul 27
1:00 AM
Tue, Jul 27
2:00 AM
Tue, Jul 27
3:00 AM
Tue, Jul 27
4:00 AM
Tue, Jul 27
5:00 AM
Tue, Jul 27
6:00 AM
Tue, Jul 27
7:00 AM
Tue, Jul 27
8:00 AM
Tue, Jul 27
9:00 AM
Tue, Jul 27
10:00 AM
Tue, Jul 27
11:00 AM
Tue, Jul 27
12:00 PM
Tue, Jul 27
1:00 PM
Tue, Jul 27
2:00 PM
Tue, Jul 27
3:00 PM
Tue, Jul 27
4:00 PM
Tue, Jul 27
5:00 PM
Condition
Clouds

Clouds

Clouds

Clouds

Clouds

Clouds

Clouds

Clouds

Clouds

Clouds

Clouds

Clouds

Clouds

Clouds

Clouds

Clouds

Clouds

Clouds

Clouds

Clouds

Clouds

Rain

Clouds

Rain

Rain

Rain

Clouds

Clouds

Rain

Rain

Clouds

Clouds

Clouds

Clouds

Clouds

Clouds

Clouds

Clouds

Clouds

Clouds

Clouds

Clouds

Clouds

Clouds

Clouds

Clouds

Clouds

Clouds
Temperature 86°F87°F86°F84°F82°F79°F75°F73°F72°F72°F72°F71°F71°F72°F75°F79°F83°F87°F90°F92°F95°F94°F87°F77°F73°F73°F72°F71°F71°F71°F71°F71°F71°F71°F71°F70°F70°F71°F74°F77°F82°F87°F91°F94°F94°F95°F94°F90°F
Feels Like 91°F91°F90°F88°F84°F79°F76°F74°F73°F73°F73°F73°F72°F73°F76°F79°F87°F92°F95°F97°F99°F99°F93°F78°F74°F74°F73°F72°F72°F72°F72°F72°F72°F72°F72°F72°F72°F73°F75°F79°F88°F95°F99°F102°F102°F101°F100°F99°F
Cloudiness 97%96%96%88%80%70%55%60%66%45%30%52%58%66%71%100%99%98%97%98%94%95%97%98%99%99%99%100%100%100%100%100%98%74%78%58%49%45%47%84%49%37%33%34%44%99%99%100%
Visibility 6 mi6 mi6 mi6 mi6 mi6 mi6 mi6 mi6 mi6 mi6 mi6 mi6 mi6 mi6 mi6 mi6 mi6 mi6 mi6 mi6 mi6 mi6 mi4 mi6 mi6 mi6 mi6 mi6 mi6 mi6 mi6 mi6 mi6 mi6 mi6 mi6 mi6 mi6 mi6 mi6 mi6 mi6 mi6 mi6 mi6 mi6 mi6 mi
Precipitation 0%0%0%0%0%0%0%0%0%0%0%0%9%10%10%8%5%0%0%0%0%53%53%66%74%97%80%32%40%53%53%45%49%30%41%40%33%33%33%0%0%0%0%0%4%35%37%19%
Humidity 59%58%60%63%64%66%74%81%86%91%93%95%97%94%86%75%65%57%51%46%42%43%58%84%96%92%91%93%94%95%96%96%96%97%98%98%98%97%93%86%75%63%55%49%47%45%46%58%
Dew Point 70°F70°F70°F70°F68°F67°F66°F67°F68°F69°F69°F70°F70°F70°F70°F70°F70°F69°F69°F69°F68°F68°F71°F71°F72°F70°F69°F69°F69°F70°F69°F70°F69°F69°F70°F70°F70°F70°F72°F73°F73°F73°F73°F72°F71°F70°F70°F73°F
Pressure 29.91"29.91"29.91"29.91"29.94"29.97"29.97"29.97"29.97"29.97"29.94"29.94"29.97"29.97"29.97"29.97"29.97"29.97"29.97"29.94"29.91"29.91"29.88"29.94"29.94"29.94"29.94"29.94"29.97"29.97"30"29.97"29.97"29.97"29.97"29.97"29.97"30"30"30.03"30.03"30.03"30"30"29.97"29.94"29.94"29.94"
Wind Speed 6.3 mph6.6 mph5.8 mph5 mph6.3 mph6.8 mph6.2 mph5.2 mph4.6 mph4.5 mph4.6 mph4.6 mph4.3 mph3.7 mph5.7 mph6.5 mph6.5 mph6.4 mph6.4 mph6.2 mph5.6 mph4.5 mph4 mph15.3 mph8.9 mph6.1 mph4.9 mph4.2 mph2.3 mph3.3 mph1.8 mph1.4 mph1.7 mph1.4 mph2.3 mph1.2 mph0.7 mph1.3 mph1.3 mph0.9 mph0.2 mph0.1 mph0.5 mph1.1 mph2.8 mph3.4 mph2.6 mph1.2 mph
Wind
Direction
141°
SE
149°
SSE
146°
SE
152°
SSE
156°
SSE
171°
S
181°
S
180°
S
171°
S
171°
S
172°
S
179°
S
187°
S
192°
SSW
204°
SSW
212°
SSW
219°
SW
221°
SW
220°
SW
215°
SW
221°
SW
232°
SW
188°
S
348°
NNW
341°
NNW
328°
NNW
327°
NNW
357°
N
58°
ENE
164°
SSE
175°
S
114°
ESE
125°
SE
169°
S
198°
SSW
204°
SSW
355°
N

N
344°
NNW
331°
NNW
176°
S
40°
NE
19°
NNE
197°
SSW
216°
SW
243°
WSW
273°
W
192°
SSW

Daily Forecast

Date High Low Precip. Humidity
Today
Jul 25

Clouds
91 °F
70 °F
4%
47%
Monday
Jul 26

Rain
95 °F
71 °F
97%
46%
Tuesday
Jul 27

Rain
94 °F
70 °F
100%
47%
Wednesday
Jul 28

Rain
93 °F
71 °F
100%
47%
Thursday
Jul 29

Rain
99 °F
72 °F
57%
40%
Friday
Jul 30

Rain
97 °F
71 °F
76%
39%
Saturday
Jul 31

Clouds
92 °F
65 °F
46%
45%
Sunday
Aug 1

Rain
89 °F
72 °F
43%
63%
Monday
Aug 2

Rain
99 °F
75 °F
55%
40%
Tuesday
Aug 3

Rain
99 °F
71 °F
100%
40%
Wednesday
Aug 4

Clear
102 °F
72 °F
47%
34%
Thursday
Aug 5

Rain
86 °F
70 °F
99%
58%
Friday
Aug 6

Rain
70 °F
63 °F
100%
94%
Saturday
Aug 7

Rain
86 °F
64 °F
26%
57%
Sunday
Aug 8

Clear
94 °F
68 °F
0%
44%
Monday
Aug 9

Clouds
96 °F
72 °F
0%
40%

Temperature 8-14 Day Outlook



Precipitation 8-14 Day Outlook




Quick Links
Lake Tillery News
Lake Tillery Photos
Lake Tillery Videos




About Us
Contact Us
Site Map
Search Site
Advertise With Us
   
Tillery.LakesOnline.com
THE LAKE TILLERY WEBSITE

Copyright 2021, Lakes Online
Privacy    |    Legal